Zurück zum Katalog

COSMOS 2251 DEB

AktivVLEO
NORAD 34128·DEBRIS·🇷🇺 Russia

Gestartet Jun 16, 1993 von Plesetsk Cosmodrome

Loading…

Nächste Überflüge (nächste 24 Stunden)

TLE

AktuellSource: Space-Track

Epoche: Sep 14, 2026, 12:28 UTC

1 34128U 93036KZ  26257.51990053  .00036895  00000-0  16407-2 0  9994
2 34128  73.9869  84.8391 0022718 136.1918 255.2255 15.21097803933337

Verfolge COSMOS 2251 DEB in Echtzeit mit AllMySat

Download on the App Store